Date,TemperatureHighF,TemperatureAvgF,TemperatureLowF,DewpointHighF,DewpointAvgF,DewpointLowF,HumidityHigh,HumidityAvg,HumidityLow,PressureMaxIn,PressureMinIn,WindSpeedMaxMPH,WindSpeedAvgMPH,GustSpeedMaxMPH,PrecipitationSumIn
2013-1-1,45.7,44.3,42.6,44.6,41.5,38.8,96,90,84,29.58,29.03,3,2,10,0.00
2013-1-2,52.3,47.5,44.4,52.1,47.1,43.0,99,98,92,29.81,29.58,2,1,6,0.00
2013-1-3,53.4,51.8,50.2,52.8,51.1,49.4,99,98,94,30.10,29.81,4,1,9,0.00
2013-1-4,51.3,48.4,45.3,50.0,47.6,45.1,99,97,91,30.14,30.09,0,0,2,0.00
2013-1-5,51.3,47.5,44.6,50.2,47.1,44.3,99,98,96,30.09,29.99,1,0,3,0.00
2013-1-6,53.4,48.1,44.8,53.1,47.7,44.5,99,98,91,30.03,29.85,0,0,2,0.00
2013-1-7,50.9,47.8,44.6,50.1,47.5,44.3,99,99,95,29.85,29.68,1,0,2,0.00
2013-1-8,52.2,48.4,44.4,51.9,48.2,44.2,99,99,99,29.78,29.65,1,0,3,0.05
2013-1-9,44.4,40.7,37.2,44.2,40.5,37.0,99,99,99,29.78,29.63,1,0,4,0.00
2013-1-10,37.8,36.4,34.7,37.5,36.1,34.4,99,99,99,29.63,29.50,0,0,2,0.00
2013-1-11,41.5,39.0,36.9,41.3,38.8,36.6,99,99,99,29.62,29.47,2,0,4,0.17
2013-1-12,41.0,38.2,34.0,39.7,35.2,31.4,99,89,69,29.63,29.43,2,1,5,0.11
2013-1-13,37.9,34.7,31.8,36.2,33.9,31.6,99,97,85,29.73,29.61,1,0,2,0.09
2013-1-14,41.9,38.9,35.4,41.5,37.6,34.7,99,95,85,29.59,29.27,4,1,8,0.66
2013-1-15,39.0,34.7,31.6,34.9,32.5,30.4,98,92,83,29.44,29.32,2,0,6,0.00
2013-1-16,33.4,31.2,30.0,31.6,30.1,28.9,99,96,93,29.54,29.38,2,0,5,0.00
2013-1-17,36.0,33.5,31.6,33.9,32.1,30.6,99,95,86,29.55,29.32,3,2,9,0.02
2013-1-18,35.1,31.9,29.5,32.4,30.2,27.6,99,93,85,29.32,28.99,3,2,8,0.00
2013-1-19,34.5,32.9,30.7,34.1,30.7,28.2,99,92,87,29.17,29.01,2,0,8,0.01
2013-1-20,34.3,33.8,33.4,32.2,32.0,31.7,95,92,90,28.95,28.94,1,0,2,0.02
2013-1-21,34.7,33.4,32.7,34.4,33.1,32.5,99,99,98,28.97,28.85,2,0,4,0.21
2013-1-22,37.4,34.6,33.4,35.0,32.3,28.4,99,91,76,29.34,28.97,2,0,5,0.02
2013-1-23,36.1,34.7,33.4,35.5,32.8,29.7,99,93,83,29.43,29.34,2,0,5,0.01
2013-1-24,37.9,34.3,30.9,32.3,30.8,27.2,92,87,79,29.65,29.44,2,0,5,0.00
2013-1-25,35.4,32.4,28.9,33.7,30.8,27.1,99,94,86,29.60,28.99,3,2,9,0.39
2013-1-26,45.1,41.2,33.8,44.9,40.6,33.5,99,98,89,29.28,28.77,2,0,8,0.86
2013-1-27,49.1,43.8,38.8,48.8,39.2,33.2,99,84,63,29.02,28.60,4,2,11,0.12
2013-1-28,51.4,44.5,38.8,47.1,39.3,33.2,97,82,63,29.14,28.75,4,1,13,0.02
2013-1-29,57.0,50.3,45.5,54.7,47.2,40.7,99,89,68,29.08,28.81,3,1,11,0.07
2013-1-30,49.3,44.5,43.7,45.9,35.3,-99.9,93,79,59,29.44,28.92,4,-40,12,0.11
2013-1-31,47.8,45.5,43.3,42.7,39.6,37.7,97,80,68,29.41,29.13,4,2,10,0.12
2013-2-1,46.4,42.7,39.7,42.4,38.4,35.4,99,85,71,29.32,28.97,3,1,11,0.08
2013-2-2,40.5,38.3,35.4,36.7,32.3,29.5,87,79,67,29.80,29.32,2,1,11,0.00
2013-2-3,49.6,44.6,36.5,48.0,43.3,32.7,99,95,82,29.76,29.33,4,1,9,0.11
2013-2-4,49.6,45.2,36.9,48.7,40.6,35.8,99,84,72,29.43,29.14,4,3,11,0.17
2013-2-5,44.4,39.8,36.0,42.8,36.8,32.1,99,89,77,29.14,28.81,5,3,14,0.32
2013-2-6,43.3,40.8,39.7,40.6,34.7,31.3,95,79,69,29.71,29.01,4,3,13,0.02
2013-2-7,43.0,39.5,37.6,40.5,36.9,34.1,99,91,83,29.73,29.55,2,0,5,0.04
2013-2-8,43.2,40.9,38.5,41.6,39.7,36.8,99,96,90,29.75,29.64,2,1,5,0.02
2013-2-9,40.5,38.9,37.2,40.0,38.6,37.0,99,99,94,29.74,29.34,2,1,4,0.14
2013-2-10,39.9,38.8,37.8,39.7,38.6,37.5,99,99,99,29.34,28.81,2,1,5,0.24
2013-2-17,43.5,41.2,39.0,35.8,34.6,34.2,88,77,70,29.64,29.62,2,0,5,0.00
2013-2-18,44.8,40.4,37.0,37.4,35.9,34.5,94,84,70,29.68,29.64,3,1,8,0.00
2013-2-19,42.6,37.3,32.4,39.9,36.1,32.1,99,95,84,29.68,29.62,2,0,3,0.00
2013-2-20,39.9,37.0,33.6,38.9,33.4,25.9,99,87,72,29.82,29.68,2,1,5,0.01
2013-2-21,39.0,35.2,33.3,26.7,23.8,21.5,76,63,53,29.85,29.78,3,1,7,0.00
2013-2-22,37.4,35.2,33.4,27.7,24.3,21.7,72,64,59,29.80,29.76,2,0,7,0.00
2013-2-24,35.4,35.1,34.0,30.8,30.7,30.5,87,84,83,29.98,29.98,1,0,2,0.00
2013-2-25,44.1,39.2,33.8,37.6,34.7,29.8,90,84,77,30.10,29.97,2,1,6,0.00
2013-2-26,42.8,40.8,39.2,37.8,36.3,34.1,91,84,79,30.22,30.08,1,0,2,0.00
2013-2-27,42.8,39.0,35.6,38.5,35.2,33.4,98,86,75,30.22,30.14,1,0,3,0.00
2013-2-28,41.4,36.9,33.1,39.8,36.1,32.6,99,97,90,30.14,30.02,1,0,4,0.00
2013-3-1,40.1,40.1,40.1,39.8,39.8,39.8,99,99,99,30.05,30.05,0,0,0,0.00
2013-3-2,45.1,39.1,31.8,41.7,36.3,28.9,98,90,81,30.01,29.84,2,0,4,0.00
2013-3-3,47.5,41.2,35.1,39.0,36.7,34.8,99,85,68,29.84,29.65,2,0,5,0.01
2013-3-4,46.4,41.6,37.4,36.2,34.6,33.8,91,76,62,29.65,29.29,4,2,9,0.00
2013-3-5,51.3,42.0,34.7,43.0,38.2,34.4,99,87,71,29.29,29.14,2,1,7,0.00
2013-3-6,49.5,43.8,40.1,43.2,41.3,39.1,98,91,79,29.15,29.10,2,1,5,0.02
2013-3-7,50.0,45.2,42.3,48.8,44.0,42.0,99,96,81,29.10,28.94,2,0,5,0.17
2013-3-8,46.6,43.7,42.1,45.6,43.2,41.8,99,98,92,29.14,28.95,2,0,5,0.21
2013-3-9,42.1,40.2,36.7,41.8,39.9,36.4,99,99,98,29.31,29.14,2,0,4,0.21
2013-3-10,39.4,34.2,30.0,36.4,22.9,-99.9,99,73,44,29.49,29.31,4,-41,10,0.09
2013-3-11,35.2,30.8,27.5,26.6,21.1,17.2,92,68,48,29.57,29.49,4,1,8,0.01
2013-3-12,41.4,34.4,27.1,37.3,26.8,19.7,92,74,62,29.57,29.44,4,2,9,0.00
2013-3-13,44.1,38.4,33.3,37.3,32.4,28.6,91,79,63,29.56,29.42,4,1,10,0.00
2013-3-14,45.3,38.7,31.3,39.1,34.1,27.0,94,84,70,29.58,29.34,2,0,4,0.02
2013-3-15,47.7,42.3,39.0,46.3,41.4,38.0,99,97,90,29.31,28.94,2,0,4,0.26
2013-3-16,44.8,41.2,38.8,43.8,40.2,38.6,99,96,86,28.94,28.78,2,0,4,0.28
2013-3-17,46.4,39.5,36.3,41.1,38.5,36.1,99,96,75,28.78,28.71,2,0,4,0.20
2013-3-18,45.3,38.5,33.6,41.1,35.9,32.7,99,91,80,28.96,28.74,2,0,5,0.02
2013-3-19,44.1,39.2,30.9,38.3,35.0,29.1,97,85,76,29.10,28.96,2,0,4,0.01
2013-3-20,43.0,39.2,35.1,36.1,34.4,32.8,96,83,69,29.55,29.10,1,0,4,0.00
2013-3-21,42.4,37.9,33.3,33.0,30.5,29.2,90,75,62,29.57,29.39,4,2,8,0.00
2013-3-22,35.8,33.9,33.1,34.5,33.5,32.0,99,98,86,29.40,29.29,4,2,11,0.30
2013-4-14,60.8,60.4,60.1,54.2,50.5,48.3,79,70,65,29.24,29.22,2,1,4,0.01
2013-6-14,63.5,57.8,55.2,58.2,54.3,52.0,99,89,70,29.44,29.18,2,1,4,0.31
2013-6-15,1023.4,0.0,200.0,99.9,99.9,99.9,2,2,2,28.45,28.45,1,1,2,0.32
2013-6-16,60.4,46.3,55.4,99.9,62.2,51.6,87,69,14,29.46,29.20,0,0,2,0.00
2013-6-17,69.1,68.8,68.2,53.3,53.2,53.2,59,58,57,29.56,29.56,2,2,4,0.00
2013-6-18,56.1,56.1,56.1,50.7,50.7,50.7,82,82,82,29.55,29.55,1,1,3,63.45
2013-7-11,69.3,63.0,59.0,62.5,58.8,56.1,90,86,79,29.89,29.83,1,0,3,0.00
2013-7-12,66.9,66.9,66.9,63.6,63.6,63.6,89,89,89,29.83,29.83,0,0,2,0.00
2013-7-13,79.3,74.8,63.3,67.4,64.6,61.8,99,72,57,29.85,29.83,2,1,4,0.00
2013-7-14,72.9,67.4,60.3,63.0,61.3,57.6,99,82,63,29.86,29.83,2,1,4,0.00
2013-7-15,1045.6,48.1,58.6,99.9,70.2,58.4,99,68,8,29.80,3.50,10,3,51,0.00
2013-7-16,76.3,76.3,76.3,62.7,62.7,62.7,63,63,63,29.80,29.80,0,0,2,64.43
2013-7-17,78.8,74.8,63.0,65.4,64.5,62.7,99,72,62,29.85,29.81,1,0,3,64.43
2013-7-18,1045.6,70.4,63.0,99.9,70.6,62.7,99,70,2,32.31,3.50,11,1,52,64.51
2013-7-19,1045.6,61.7,76.8,99.9,73.8,67.1,72,59,10,32.29,3.50,12,3,55,64.39
2013-7-20,1045.6,32.1,78.6,99.9,85.6,64.0,61,28,2,29.76,3.50,68,18,68,0.00
2013-7-21,71.8,66.8,62.6,62.1,59.5,57.5,90,78,67,29.74,29.64,2,1,6,64.43